Regional Weather Roundup
Issued by NWS

Home | Current Version | Previous Version | Graphics & Text | Print | Product List | Glossary On
Versions: 1 2 3 4 5 6 7 8 9 10 11 12 13 14 15 16 17 18 19 20 21 22 23 24 25 26 27 28 29 30 31 32 33 34 35 36 37 38 39 40 41 42 43 44 45 46 47 48 49 50
000
ASUS43 KDMX 011407
RWRIA

WEATHER ROUNDUP FOR IOWA
NATIONAL WEATHER SERVICE DES MOINES IA
900 AM CDT WED OCT 01 2014

NOTE: "FAIR" INDICATES FEW OR NO CLOUDS BELOW 12,000 FEET WITH NO
SIGNIFICANT WEATHER AND/OR OBSTRUCTIONS TO VISIBILITY.

* - THESE STATIONS ARE NOT NWS STATIONS...THUS NOT UNDER NWS
QUALITY CONTROL.  THEY ALSO DO NOT REPORT WEATHER SUCH
AS PRECIPITATION OR FOG.

IAZ001>003-012>014-020>022-031>034-043>046-011500-
   NORTHWEST IOWA

CITY           SKY/WX    TMP DP  RH WIND       PRES   REMARKS
CARROLL *      LGT RAIN  63  63 100 SW9       29.76R
CHEROKEE *     DRIZZLE   59  59 100 CALM      29.76S
DENISON *      MOSUNNY   61  61 100 W6        29.75R
LE MARS *      CLOUDY    57  57 100 CALM      29.76S FOG
ORANGE CITY *  CLOUDY    61  59  94 CALM      29.76R FOG
SHELDON *      CLOUDY    59  59 100 CALM      29.75R FOG
SIOUX CITY     MOSUNNY   63  61  93 CALM      29.76R FOG
SPENCER        CLOUDY    58  55  90 SE6       29.78R
STORM LAKE *   FOG       57  57 100 SE6       29.77R VSB 1/4
$$

IAZ055>058-069>071-079>083-090>094-011500-
   SOUTHWEST IOWA

CITY           SKY/WX    TMP DP  RH WIND       PRES   REMARKS
ATLANTIC *     CLOUDY    63  63 100 S6        29.77S
AUDUBON *      CLOUDY    63  57  82 S8        29.77R
CLARINDA *     CLOUDY    64  64 100 VRB7G13   29.78R
COUNCIL BLFS * PTSUNNY   63  63 100 E5        29.75R
CRESTON *      CLOUDY    63  63 100 S10       29.80R
HARLAN  *      PTSUNNY   61  61 100 S6        29.79R
LAMONI         LGT RAIN  63  61  93 S7        29.81R FOG
RED OAK *      CLOUDY    64  63  94 CALM      29.77R
SHENANDOAH *   CLOUDY    66  64  94 SE6       29.76S
$$

IAZ047>049-059>061-072>074-084-011500-
   CENTRAL IOWA

CITY           SKY/WX    TMP DP  RH WIND       PRES   REMARKS
AMES           CLOUDY    55  55 100 SE13      29.81R
ANKENY *       CLOUDY    59  57  94 SE8       29.80R
CHARITON *     CLOUDY    61  59  94 SE12G18   29.80R FOG
DES MOINES     CLOUDY    61  58  90 SE10      29.80R FOG
GRINNELL*      RAIN      54  52  94 SE21G32   29.79F
KNOXVILLE *    LGT RAIN  57  55  94 SE14G24   29.78R
MARSHALLTOWN   LGT RAIN  53  52  96 SE13      29.81F
PELLA *        RAIN      57  55  94 SE13      29.82F
PERRY *        DRIZZLE   61  59  94 S7        29.79R
$$

IAZ004>006-015-016-023>025-035-036-011500-
   NORTH CENTRAL IOWA

CITY           SKY/WX    TMP DP  RH WIND       PRES   REMARKS
ALGONA *       CLOUDY    54  54 100 E8G15     29.78S FOG
CLARION *      CLOUDY    54  54 100 SE14G25   29.78F
ESTHERVILLE    CLOUDY    54  53  97 SE9       29.78R
FORT DODGE *   CLOUDY    55  52  88 SE9G16    29.78R
MASON CITY     LGT RAIN  51  50  96 SE14      29.83S FOG
FOREST CITY *  LGT RAIN  52  52 100 SE9G18    29.80F
IOWA FALLS *   DRIZZLE   52  52 100 SE12      29.82R
$$

IAZ007>011-017>019-026>030-037>042-050>054-066-011500-
   NORTHEAST IOWA

CITY           SKY/WX    TMP DP  RH WIND       PRES   REMARKS
CEDAR RAPIDS   PTSUNNY   54  50  87 SE10      29.90
CHARLES CITY * LGT RAIN  50  48  93 E16G23    29.85F
CLINTON *      MOSUNNY   54  46  76 SE12      29.97F
DECORAH *      CLOUDY    50  48  93 SE8       29.90F FOG
DUBUQUE        CLOUDY    52  48  87 SE14      29.95
MONTICELLO *   PTSUNNY   54  48  82 SE9G15    29.92R
OELWEIN *      PTSUNNY   52  48  87 SE15      29.89S
WATERLOO       LGT RAIN  52  49  89 SE8       29.86F
$$

IAZ064-065-067-068-078-011500-
   EAST CENTRAL IOWA

CITY           SKY/WX    TMP DP  RH WIND       PRES   REMARKS
IOWA CITY      CLOUDY    56  50  80 SE7       29.92S
MT. PLEASANT * CLOUDY    57  50  77 SE7       29.90S
MUSCATINE *    SUNNY     59  50  72 SE7       29.92S
$$

IAZ062-063-075>077-085>089-095>099-011500-
   SOUTHEAST IOWA

CITY           SKY/WX    TMP DP  RH WIND       PRES   REMARKS
BURLINGTON     PTSUNNY   57  52  83 S6        29.91S
FAIRFIELD *    CLOUDY    55  52  88 S5        29.91R
FORT MADISON * SUNNY     61  52  72 SE7       29.91S HAZE
KEOKUK *       SUNNY     59  54  82 SE10      29.89S
OSKALOOSA *    LGT RAIN  55  54  94 SE12      29.86F
CENTERVILLE *  LGT RAIN  59  59 100 E8        29.85F
OTTUMWA        LGT RAIN  55  53  93 SE9       29.86F
WASHINGTON *   CLOUDY    55  52  88 SW6       29.92R
$$

ABBREVIATIONS USED IN REMARKS
   TC - TEMPERATURES IN CELSIUS
  WCI - WIND CHILL INDEX
   HX - HEAT INDEX
  VSB - VISIBILITY
$$



USA.gov is the U.S. government's official web portal to all federal, state and local government web resources and services.